Pardubice, Czech Republic

6:31 PM CET on December 14, 2017 (GMT +0100)
Pardubice

Weather History for LKPD - December, 2012

Change the Weather History Date:

Tuesday, December 25, 2012

  Actual Average Record
Temperature  
Mean Temperature 36 °F -  
Max Temperature 41 °F - - ()
Min Temperature 30 °F - - ()
Degree Days  
Heating Degree Days 30    
Moisture  
Dew Point 33 °F    
Average Humidity 91    
Maximum Humidity 100    
Minimum Humidity 81    
Precipitation  
Precipitation 0.00 in - - ()
Sea Level Pressure  
Sea Level Pressure 29.75 in    
Wind  
Wind Speed 4 mph ()    
Max Wind Speed 8 mph    
Max Gust Speed -    
T = Trace of Precipitation, MM = Missing Value Source: Averaged Metar Reports

Daily Weather History Graph

Daily Weather History Graph

Search for Another Location

Airport or City:

Trip Planner

Search our weather history database for the weather conditions in past years. The results will help you decide how hot, cold, wet, or windy it might be!

Date:

Astronomy

Dec. 25, 2012 Rise Set
Actual Time 7:54 AM CET 3:59 PM CET
Civil Twilight 7:16 AM CET 4:38 PM CET
Nautical Twilight 6:34 AM CET 5:19 PM CET
Astronomical Twilight 5:55 AM CET 5:59 PM CET
Moon 2:00 PM CET (12/25) 5:06 AM CET (12/25)
Length of Visible Light 9h 22m
Length of Day
8h 05m
Waxing Gibbous, 92% of the Moon is Illuminated
Dec 25
Waxing Gibbous
Dec 28
Full
Jan 5
Last Quarter
Jan 11
New
Jan 19
First Quarter

Hourly Weather History & Observations

Time (CET) Temp. Windchill Dew Point Humidity Pressure Visibility Wind Dir Wind Speed Gust Speed Precip Events Conditions
12:00 AM 33.8 °F 27.7 °F 32.0 °F 93% 29.80 in - East 6.9 mph - N/A   Clear
1:00 AM 33.8 °F 29.6 °F 32.0 °F 93% 29.77 in - NE 4.6 mph - N/A   Clear
2:00 AM 32.0 °F - 30.2 °F 93% 29.77 in - Calm Calm - N/A   Clear
3:00 AM 32.0 °F - 30.2 °F 93% 29.77 in - Calm Calm - N/A   Clear
4:00 AM 30.2 °F - 30.2 °F 100% 29.77 in - Calm Calm - N/A   Clear
5:00 AM 30.2 °F - 30.2 °F 100% 29.77 in - Calm Calm - N/A   Clear
6:00 AM 33.8 °F 27.0 °F 32.0 °F 93% 29.74 in - East 8.1 mph - N/A   Clear
7:00 AM 33.8 °F 27.0 °F 32.0 °F 93% 29.74 in - East 8.1 mph - N/A   Clear
8:00 AM 33.8 °F 27.7 °F 32.0 °F 93% 29.77 in - East 6.9 mph - N/A   Clear
10:00 AM 35.6 °F 29.9 °F 32.0 °F 87% 29.77 in - East 6.9 mph - N/A   Clear
11:00 AM 37.4 °F 32.1 °F 33.8 °F 87% 29.77 in - East 6.9 mph - N/A   Clear
12:00 PM 39.2 °F 34.2 °F 33.8 °F 81% 29.74 in - East 6.9 mph - N/A   Clear
1:00 PM 41.0 °F 36.4 °F 35.6 °F 81% 29.71 in - East 6.9 mph - N/A   Clear
2:00 PM 41.0 °F - 35.6 °F 81% 29.71 in - Variable 2.3 mph - N/A   Clear
3:00 PM 39.2 °F - 35.6 °F 87% 29.71 in - Variable 1.2 mph - N/A   Clear
4:00 PM 35.6 °F 31.7 °F 35.6 °F 100% 29.71 in - East 4.6 mph - N/A   Clear
5:00 PM 37.4 °F 32.8 °F 33.8 °F 87% 29.71 in - East 5.8 mph - N/A   Clear
6:00 PM 35.6 °F 29.9 °F 32.0 °F 87% 29.71 in - East 6.9 mph - N/A   Clear
7:00 PM 35.6 °F - 33.8 °F 93% 29.71 in - Variable 2.3 mph - N/A   Clear
8:00 PM 35.6 °F 32.8 °F 32.0 °F 87% 29.77 in - NNW 3.5 mph - N/A   Clear
9:00 PM 32.0 °F - 30.2 °F 93% 29.80 in - Variable 2.3 mph - N/A   Clear
10:00 PM 33.8 °F 29.6 °F 32.0 °F 93% 29.80 in - East 4.6 mph - N/A   Clear
11:00 PM 37.4 °F - 33.8 °F 87% 29.80 in - Variable 2.3 mph - N/A   Clear